Regional Weather Roundup
Issued by NWS

Home | Current Version | Previous Version | Graphics & Text | Print | Product List | Glossary On
Versions: 1 2 3 4 5 6 7 8 9 10 11 12 13 14 15 16 17 18 19 20 21 22 23 24 25 26 27 28 29 30 31 32 33 34 35 36 37 38 39 40 41 42 43 44 45 46 47 48 49 50
193
ASUS44 KJAN 240803
RWRMS

MISSISSIPPI HOURLY WEATHER ROUNDUP
NATIONAL WEATHER SERVICE JACKSON MS
300 AM CDT THU JUL 24 2014

NOTE: "FAIR: INDICATES FEW OR NO CLOUDS BELOW 12,000 FEET WITH NO
SIGNIFICANT WEATHER AND/OR OBSTRUCTIONS TO VISIBILITY.

MSZ001>002-007>008-010>013-018>021-025>028-034>036-240900-
NORTHWEST MISSISSIPPI

CITY           SKY/WX    TMP DP  RH WIND       PRES   REMARKS
CLARKSDALE     FAIR      68  68 100 CALM      29.99F
CLEVELAND      FAIR      70  70 100 CALM      29.98F
GREENWOOD      PTCLDY    70  68  93 CALM      29.98F
GREENVILLE     PTCLDY    73  69  87 NE6       29.98S
GRENADA        FAIR      68  68 100 CALM      29.98F
OLIVE BRANCH   CLEAR     68 N/A N/A N3        29.99F
OXFORD         FAIR      68  66  94 CALM      30.00S
TUNICA         SUNNY     68  66  94 CALM      29.99F
$$

MSZ003>006-009-014>017-022>024-029>033-037>039-240900-
NORTHEAST MISSISSIPPI

CITY           SKY/WX    TMP DP  RH WIND       PRES   REMARKS
BELMONT        FAIR      69  69  99 CALM      29.98S
COLUMBUS AFB   PTCLDY    70  70 100 SE2       29.97F
CORINTH        FAIR      68  66  94 NW3       29.97F FOG
GOLDN TRIANGLE PTCLDY    70  66  88 CALM      29.98S
STARKVILLE     FAIR      70  68  94 CALM      29.97F
TUPELO         CLEAR     73  69  87 CALM      29.96F
$$

MSZ040-058-240900-
CENTRAL MISSISSIPPI

CITY           SKY/WX    TMP DP  RH WIND       PRES   REMARKS
JACKSON INTL   CLEAR     72  70  93 N6        29.97F
JACKSON HAWKNS MOCLDY    72  68  87 CALM      29.98F
MERIDIAN KEY   CLEAR     71  69  93 CALM      29.98S
MERIDIAN NAS   PTCLDY    70  68  93 SE5       29.98F
RAYMOND        FAIR      72  66  83 CALM      29.97F HAZE
VICKSBURG      CLEAR     74  71  91 E5        29.96F
$$

MSZ059>079-240900-
SOUTH MISSISSIPPI

CITY           SKY/WX    TMP DP  RH WIND       PRES   REMARKS
BROOKHAVEN     FAIR      72  72 100 CALM      29.99S
COLUMBIA       FAIR      72  72 100 SE5       29.96F FOG
HATTIESBURG    CLEAR     73  71  93 SE3       29.98F
MCCOMB         CLEAR     74  71  91 CALM      29.97F
NATCHEZ        CLEAR     72  68  88 CALM      29.96F
PINE BELT      CLEAR     72  68  88 CALM      29.99F
$$

MSZ080>082-240900-
COASTAL MISSISSIPPI

CITY           SKY/WX    TMP DP  RH WIND       PRES   REMARKS
BILOXI         CLEAR     77  73  87 CALM      29.97F
PASCAGOULA     CLEAR     71  70  96 CALM      29.97F
GULFPORT       CLEAR     76  72  87 CALM      29.96F
$$



USA.gov is the U.S. government's official web portal to all federal, state and local government web resources and services.